Location: Budapest
(47.4979°N, 19.0402°E)
Time: 14:01:48
(UTC+02:00)

N. Korean satellite - Pass Details

Date: 11 October 2017
Orbit: 459 x 517 km, 97.2° (Epoch: 22 October)

Event Time Altitude Azimuth Distance (km) Brightness Sun altitude
Rises 18:42:47 0° 168° (SSE) 2,559 10.1 -7.4°
Reaches altitude 10° 18:44:52 10° 170° (S) 1,673 9.2 -7.8°
Maximum altitude 18:48:28 81° 257° (WSW) 494 6.7 -8.4°
Drops below altitude 10° 18:52:01 10° 346° (NNW) 1,655 9.4 -9.0°
Sets 18:54:04 0° 347° (NNW) 2,530 10.4 -9.3°
